Weather History for Arbor Vitae, WI

Change the Weather History Date:

Tuesday, May 28, 2013

  Actual Average Record
Temperature  
Mean Temperature 54 °F -  
Max Temperature 56 °F 70 °F 90 °F (1919)
Min Temperature 51 °F 45 °F 28 °F (1949)
Degree Days  
Heating Degree Days 12    
Growing Degree Days 4 (Base 50)    
Moisture  
Dew Point 49 °F    
Average Humidity 78    
Maximum Humidity 93    
Minimum Humidity 54    
Precipitation  
Precipitation 0.00 in - - ()
Sea Level Pressure  
Sea Level Pressure 29.81 in    
Wind  
Wind Speed 6 mph (SE)    
Max Wind Speed 9 mph    
Max Gust Speed -    
Visibility 10 miles    
Events Rain    
Averages and records for this station are not official NWS values.
T = Trace of Precipitation, MM = Missing Value Source: NWS Daily Summary

Daily Weather History Graph

Daily Weather History Graph

Search for Another Location

Airport:

Trip Planner

Search our weather history database for the weather conditions in past years. The results will help you decide how hot, cold, wet, or windy it might be!

Date:

Astronomy

May. 28, 2013 Rise Set
Actual Time 5:14 AM CDT 8:38 PM CDT
Civil Twilight 4:37 AM CDT 9:15 PM CDT
Nautical Twilight 3:49 AM CDT 10:04 PM CDT
Astronomical Twilight 2:47 AM CDT 11:06 PM CDT
Moon 11:54 PM CDT (5/28) 9:07 AM CDT (5/28)
Length of Visible Light 16h 38m
Length of Day
15h 24m
Waning Gibbous, 82% of the Moon is Illuminated
May 28
Waning Gibbous
May 31
Last Quarter
Jun 8
New
Jun 16
First Quarter
Jun 23
Full

Hourly Weather History & Observations

Time (CDT) Temp. Dew Point Humidity Pressure Visibility Wind Dir Wind Speed Gust Speed Precip Events Conditions
12:15 AM 56.8 °F 40.3 °F 54% 29.93 in 10.0 mi SE 6.9 mph - N/A   Overcast
12:35 AM 56.8 °F 40.6 °F 55% 29.92 in 10.0 mi ESE 6.9 mph - N/A   Overcast
12:55 AM 56.8 °F 40.8 °F 55% 29.92 in 10.0 mi SE 6.9 mph - N/A   Overcast
1:15 AM 56.8 °F 41.4 °F 56% 29.92 in 10.0 mi SE 4.6 mph - N/A   Overcast
1:35 AM 56.8 °F 41.4 °F 56% 29.91 in 10.0 mi SE 5.8 mph - N/A   Overcast
1:55 AM 56.8 °F 41.5 °F 57% 29.91 in 10.0 mi SE 5.8 mph - N/A   Overcast
2:15 AM 56.8 °F 42.1 °F 58% 29.91 in 10.0 mi SE 4.6 mph - N/A   Overcast
2:35 AM 56.8 °F 42.3 °F 58% 29.90 in 10.0 mi SE 5.8 mph - N/A   Overcast
2:55 AM 52.0 °F 44.4 °F 75% 29.89 in 10.0 mi Calm Calm - N/A Rain Light Rain
3:15 AM 51.8 °F 45.3 °F 79% 29.88 in 10.0 mi ESE 4.6 mph - N/A Rain Light Rain
3:35 AM 52.0 °F 44.6 °F 76% 29.86 in 10.0 mi ESE 5.8 mph - N/A   Overcast
3:55 AM 51.8 °F 43.9 °F 74% 29.85 in 10.0 mi ESE 3.5 mph - N/A   Mostly Cloudy
4:15 AM 54.1 °F 44.6 °F 70% 29.86 in 10.0 mi SE 8.1 mph - N/A   Overcast
4:35 AM 54.0 °F 43.7 °F 68% 29.86 in 10.0 mi SE 6.9 mph - N/A   Overcast
4:55 AM 54.5 °F 43.5 °F 66% 29.86 in 10.0 mi SE 6.9 mph - N/A   Overcast
5:15 AM 54.3 °F 42.8 °F 65% 29.87 in 10.0 mi SE 4.6 mph - N/A   Overcast
5:35 AM 53.1 °F 41.0 °F 64% 29.85 in 10.0 mi SE 5.8 mph - N/A   Overcast
5:55 AM 53.1 °F 41.2 °F 64% 29.84 in 10.0 mi ESE 5.8 mph - N/A   Overcast
6:15 AM 53.2 °F 41.9 °F 65% 29.84 in 10.0 mi ESE 3.5 mph - N/A   Overcast
6:35 AM 54.5 °F 43.0 °F 65% 29.84 in 10.0 mi SE 5.8 mph - N/A   Overcast
6:55 AM 54.5 °F 43.0 °F 65% 29.83 in 10.0 mi SE 6.9 mph - N/A   Overcast
7:15 AM 54.5 °F 43.5 °F 66% 29.83 in 10.0 mi SE 5.8 mph - N/A   Overcast
7:35 AM 54.5 °F 44.1 °F 68% 29.83 in 10.0 mi ESE 8.1 mph - N/A   Overcast
7:55 AM 54.5 °F 44.6 °F 69% 29.83 in 10.0 mi SE 8.1 mph - N/A   Overcast
8:15 AM 54.5 °F 45.0 °F 70% 29.83 in 10.0 mi ESE 9.2 mph - N/A   Overcast
8:35 AM 54.5 °F 45.5 °F 72% 29.82 in 10.0 mi SE 6.9 mph - N/A   Overcast
8:55 AM 54.5 °F 46.2 °F 74% 29.82 in 10.0 mi ESE 3.5 mph - N/A   Overcast
9:15 AM 54.5 °F 46.6 °F 75% 29.82 in 10.0 mi SE 6.9 mph - N/A   Overcast
9:35 AM 54.5 °F 46.8 °F 75% 29.82 in 10.0 mi ESE 6.9 mph - N/A   Overcast
9:55 AM 54.5 °F 47.8 °F 78% 29.81 in 10.0 mi ESE 6.9 mph - N/A   Overcast
10:15 AM 54.5 °F 47.8 °F 78% 29.81 in 10.0 mi East 5.8 mph - N/A   Overcast
10:35 AM 54.5 °F 48.2 °F 79% 29.81 in 10.0 mi ESE 4.6 mph - N/A   Overcast
10:55 AM 55.4 °F 49.1 °F 79% 29.81 in 10.0 mi ESE 8.1 mph - N/A   Overcast
11:15 AM 56.8 °F 50.5 °F 79% 29.80 in 10.0 mi SE 8.1 mph - N/A   Overcast
11:35 AM 56.8 °F 50.9 °F 80% 29.80 in 10.0 mi ESE 4.6 mph - N/A   Overcast
11:55 AM 56.8 °F 51.3 °F 82% 29.80 in 10.0 mi ESE 8.1 mph - N/A   Overcast
12:15 PM 56.8 °F 51.8 °F 83% 29.79 in 10.0 mi ESE 5.8 mph - N/A   Overcast
12:35 PM 56.8 °F 51.8 °F 83% 29.79 in 10.0 mi East 6.9 mph - N/A   Overcast
12:55 PM 56.8 °F 51.8 °F 83% 29.79 in 10.0 mi ESE 8.1 mph - N/A   Overcast
1:15 PM 56.8 °F 51.4 °F 82% 29.79 in 10.0 mi SSE 4.6 mph - N/A   Overcast
1:35 PM 56.8 °F 51.6 °F 83% 29.79 in 10.0 mi ESE 5.8 mph - N/A   Overcast
1:55 PM 56.8 °F 51.6 °F 83% 29.79 in 10.0 mi ESE 4.6 mph - N/A   Overcast
2:15 PM 56.8 °F 51.8 °F 83% 29.79 in 7.0 mi ESE 5.8 mph - N/A   Overcast
2:35 PM 56.8 °F 53.1 °F 87% 29.79 in 3.0 mi SE 5.8 mph - N/A   Overcast
2:55 PM 56.8 °F 53.1 °F 87% 29.79 in 5.0 mi East 4.6 mph - N/A   Overcast
3:15 PM 56.8 °F 52.2 °F 84% 29.78 in 10.0 mi ESE 4.6 mph - N/A   Overcast
3:35 PM 56.8 °F 51.8 °F 83% 29.78 in 10.0 mi SE 5.8 mph - N/A   Overcast
3:55 PM 56.8 °F 51.3 °F 82% 29.78 in 10.0 mi ESE 8.1 mph - N/A   Overcast
4:15 PM 56.8 °F 52.0 °F 84% 29.78 in 10.0 mi ESE 6.9 mph - N/A   Overcast
4:35 PM 56.8 °F 52.0 °F 84% 29.78 in 10.0 mi ESE 6.9 mph - N/A   Overcast
4:55 PM 56.8 °F 52.9 °F 87% 29.77 in 5.0 mi ESE 3.5 mph - N/A Rain Rain
5:15 PM 56.8 °F 53.1 °F 87% 29.77 in 10.0 mi SE 4.6 mph - N/A   Overcast
5:35 PM 56.8 °F 52.5 °F 85% 29.77 in 10.0 mi SSE 6.9 mph - N/A   Overcast
5:55 PM 56.8 °F 52.7 °F 86% 29.77 in 10.0 mi SSE 4.6 mph - N/A   Overcast
6:15 PM 56.8 °F 52.3 °F 85% 29.78 in 10.0 mi South 4.6 mph - N/A   Overcast
6:35 PM 56.8 °F 52.9 °F 87% 29.78 in 10.0 mi South 4.6 mph - N/A   Overcast
6:55 PM 56.8 °F 53.1 °F 87% 29.78 in 10.0 mi SE 5.8 mph - N/A   Overcast
7:15 PM 56.8 °F 53.2 °F 88% 29.78 in 10.0 mi South 4.6 mph - N/A   Overcast
7:35 PM 56.8 °F 54.0 °F 90% 29.77 in 10.0 mi SSE 3.5 mph - N/A   Overcast
7:55 PM 56.8 °F 54.1 °F 91% 29.77 in 7.0 mi Calm Calm - N/A   Overcast
8:15 PM 56.8 °F 54.5 °F 92% 29.77 in 10.0 mi SSE 3.5 mph - N/A   Overcast
8:35 PM 56.8 °F 54.5 °F 92% 29.76 in 10.0 mi Calm Calm - N/A   Overcast
8:55 PM 56.8 °F 54.5 °F 92% 29.76 in 10.0 mi Calm Calm - N/A   Overcast
9:15 PM 56.8 °F 54.5 °F 92% 29.76 in 10.0 mi Calm Calm - N/A   Overcast
9:35 PM 56.8 °F 54.5 °F 92% 29.74 in 10.0 mi Calm Calm - N/A   Overcast
9:55 PM 56.8 °F 54.5 °F 92% 29.76 in 10.0 mi Calm Calm - N/A   Overcast
10:15 PM 56.8 °F 54.5 °F 92% 29.76 in 10.0 mi Calm Calm - N/A   Overcast
10:35 PM 56.8 °F 54.5 °F 92% 29.78 in 10.0 mi Calm Calm - N/A   Overcast
10:55 PM 56.8 °F 54.7 °F 92% 29.78 in 10.0 mi SSW 5.8 mph - N/A   Overcast
11:15 PM 56.8 °F 54.7 °F 92% 29.79 in 10.0 mi SW 6.9 mph - N/A   Overcast
11:35 PM 56.8 °F 54.9 °F 93% 29.79 in 3.0 mi Calm Calm - N/A   Overcast
11:55 PM 56.8 °F 54.9 °F 93% 29.79 in 5.0 mi SSW 4.6 mph - N/A   Overcast